STARLINK-32825, 62825

Orbit data source: Space-Track

STARLINK-32825, 62825 is a payload satellite owned by SpaceX/Seattle (US) in LEO that was launched on Fri, 24 Jan 2025 UTC via an FALCON 9 launch vehicle from the Air Force Western Test Range (AFWTR). Payloads include a variety of satellites, spacecraft, and rockets equipped with specific instruments for various scientific and technological missions. These include communications satellites like Starlink; space stations such as the ISS; scientific satellites like the Hubble; Earth observation satellites from companies like Planet Labs, Umbra, and HawkEye 360; GPS; miniature CubeSats for education and research; and military/defense satellites.

Loading next visibility...
STARLINK-32825 details
Identifier
62825, 2025-018V
Orbit
LEO
Last TLE update8 hours ago
Origin
Flag of USSpaceX/Seattle (US)
ManufacturerSpaceX/Seattle
MissionOperational spacecraft
Bus & MotorSTARLINK V2M, Unknown motor
Mass730 kg wet, ~700 kg dry
Launch date (UTC)
2025-01-24 (3 weeks ago)
Launch vehicle
FALCON 9
Launch site
Air Force Western Test Range (AFWTR)
Object type
Payload
Rocket body
Debris
Shape & HBRUnknown
Radar Cross SectionLarge (>1 m²)

Expand to show TLE details & history

TLE from 8 hours ago
0 STARLINK-32825
1 62825U 25018V   25047.16668981 -.01594791  00000-0 -25307-1 0  9998
2 62825  53.1590 312.4678 0000721  78.4987 299.5445 15.55651793  4821
Epoch: 2025-02-16T04:00Z
Definitive object data (Epoch: 2025-02-16T04:00:01.999Z)
Latitude14.35586°
Longitude117.04824°
Altitude400.192 km
Speed7.673 km/s
True Right ascension21h 33m 50s
True Declination14° 16' 09"
Sunlit
Object was in daylight at TLE epoch
Visualization TLE readout
Latitude47.54375°
Longitude158.98244°
Altitude408.269 km
Speed7.672 km/s
Apparent Right ascension01h 34m 02s
Apparent Declination5° 45' 47"
Sunlit
Object is in daylight
Visualization observer readout
Local Sidereal Time14:41:46
Azimuth22.848° NE
Elevation-41.728°
Doppler factor1
Orbital elements
Apogee altitude401.007 km
Perigee altitude400.029 km
Semi-major axis6,778.655 km
Eccentricity0.0000721
Inclination53.159°
RAAN312.4678°
Arg. of periapsis78.4987°
True anomaly299.53731°
Mean anomaly299.5445°
Eccentric anomaly299.54091°
Mean motion3.88891 °/min
BSTAR-0.025307
Orbital period92.57 mins
Loading maneuver chart data...
Loading historical data...
Loading historical data...
Loading historical data...
Loading historical data...
Loading historical data...
Loading historical data...
Loading historical data...

STARLINK-32825 Visibility forecast

Observer location: undefined°, undefined

Span
Click to sort rows by Start time (UTC) header in descending order
Start Az.
Max El. time (UTC)
Max El. Az.
Max El.
End time (UTC)
End Az.
4 mins2025-02-16 19:31:19.531Z175.812° S2025-02-16 19:33:19.531Z123.319° SE22.3°2025-02-16 19:35:19.531Z79.733° E
4 mins2025-02-16 21:08:19.531Z289.769° WNW2025-02-16 21:09:19.531Z325.473° NNW28.075°2025-02-16 21:12:19.531Z33.587° NE
5 mins2025-02-17 01:59:19.531Z335.563° NNW2025-02-17 02:01:19.531Z15.522° NNE21.135°2025-02-17 02:04:19.531Z83.158° E
5 mins2025-02-17 03:36:19.531Z287.503° WNW2025-02-17 03:38:19.531Z224.917° SW32.766°2025-02-17 03:41:19.531Z154.998° SSE
|